Back to catalog

COSMOS 2451

AliveNavigationPO
NORAD 35498·PAYLOAD·🇷🇺 Russia

Launched Jul 6, 2009 from Plesetsk Cosmodrome

Loading…

Next Passes (next 24 hours)

TLE

FreshSource: Space-Track

Epoch: Sep 14, 2026, 21:52 UTC

1 35498U 09036A   26257.91150559 -.00000026  00000-0 -26335-3 0  9996
2 35498  82.4888  36.6656 0006987  23.5450 336.5947 12.40872040778771

Track COSMOS 2451 in real time with AllMySat

Download on the App Store